Location: Niedergestelen
(46.3129°N, 7.7822°E)
Time: 06:42:10
(UTC+00:00)

Cosmos 1238 Rocket - Pass Details

Date: 01 December 2020
Orbit: 376 x 1024 km, 83.0° (Epoch: 18 January)

Event Time Altitude Azimuth Distance (km) Brightness Sun altitude
Rises 17:19:22 0° 0° (N) 2,632 6.1 -15.9°
Reaches altitude 10° 17:21:28 10° 10° (N) 1,830 5.2 -16.2°
Maximum altitude 17:25:12 36° 78° (ENE) 991 3.5 -16.9°
Drops below altitude 10° 17:29:39 10° 145° (SE) 2,185 5.6 -17.6°
Sets 17:32:21 0° 153° (SSE) 3,223 6.6 -18.1°
